Hourly Weather Roundup
Issued by NWS Central Illinois

Home | Current Version | Previous Version | Text Only | Print | Product List | Glossary On
Versions: 1 2 3 4 5 6 7 8 9 10 11 12 13 14 15 16 17 18 19 20 21 22 23 24 25 26 27 28 29 30 31 32 33 34 35 36 37 38 39 40 41 42 43 44 45 46 47 48 49 50
000
NZUS43 KILX 040610
HWRILX

AREA WEATHER ROUNDUP
NATIONAL WEATHER SERVICE, LINCOLN IL
1200 AM CST SUN DEC 04 2016


CITY           SKY/WX    TMP DP  RH WIND       PRES   REMARKS
BLOOMINGTON    CLOUDY    31  28  89 E7        30.25F WCI  24
6HR MIN TEMP:  29; 6HR MAX TEMP:  31;

CHAMPAIGN      PTCLDY    32  28  85 E5        30.26F WCI  27
6HR MIN TEMP:  31; 6HR MAX TEMP:  33;

DANVILLE       CLOUDY    31  29  90 N3        30.25F
6HR MIN TEMP:  30; 6HR MAX TEMP:  33;

DECATUR        CLOUDY   N/A N/A N/A E6        30.26F
EFFINGHAM      CLOUDY    37  32  84 NE3       30.27S
6HR MIN TEMP:  37; 6HR MAX TEMP:  38;

FLORA          CLOUDY    39  32  76 E6        30.25F WCI  35
6HR MIN TEMP:  39; 6HR MAX TEMP:  42;

GALESBURG      CLOUDY    33  29  86 E8        30.21F WCI  26
6HR MIN TEMP:  33; 6HR MAX TEMP:  34;

JACKSONVILLE   CLOUDY    36  32  85 SE12      30.21F WCI  28
6HR MIN TEMP:  36; 6HR MAX TEMP:  38;

LACON          CLOUDY    32  28  83 SE5       30.25F WCI  27
6HR MIN TEMP:  32; 6HR MAX TEMP:  32;

LAWRENCEVILLE  CLOUDY    37  30  75 NE8       30.26F WCI  31
6HR MIN TEMP:  37; 6HR MAX TEMP:  39;

LITCHFIELD     PTCLDY    37  32  84 E7        30.23F WCI  31
6HR MIN TEMP:  35; 6HR MAX TEMP:  37;

$$


CITY           SKY/WX    TMP DP  RH WIND       PRES   REMARKS
LINCOLN        CLOUDY    34  31  88 E5        30.24F WCI  30
6HR MIN TEMP:  34; 6HR MAX TEMP:  35;

MACOMB         CLOUDY    34  32  90 SE10      30.22F WCI  26
6HR MIN TEMP:  34; 6HR MAX TEMP:  35;

MATTOON        PTCLDY    34  27  75 E3        30.25F
6HR MIN TEMP:  33; 6HR MAX TEMP:  34;

MT CARMEL AP   CLOUDY    37  31  78 NE7       30.26S WCI  31
6HR MIN TEMP:  37; 6HR MAX TEMP:  39;

OLNEY-NOBLE AP CLOUDY    36  32  87 E7        30.26S WCI  30
PARIS          CLOUDY    32  30  92 CALM      30.27F
6HR MIN TEMP:  32; 6HR MAX TEMP:  34;

PEORIA         CLOUDY    33  28  81 E6        30.24F WCI  28
6HR MIN TEMP:  33; 6HR MAX TEMP:  34;

PONTIAC        CLOUDY    32  31  95 SE5       30.27F WCI  27
6HR MIN TEMP:  32; 6HR MAX TEMP:  33;

RANTOUL        CLOUDY    33  31  91 E6        30.26F WCI  28
6HR MIN TEMP:  33; 6HR MAX TEMP:  34;

SPRINGFIELD    CLOUDY    36  31  82 E13       30.23F WCI  27
6HR MIN TEMP:  36; 6HR MAX TEMP:  38;

TAYLORVILLE    CLOUDY    35  31  88 E7        30.25F WCI  29
6HR MIN TEMP:  35; 6HR MAX TEMP:  36;

$$

...REGIONAL REPORTS...


CITY           SKY/WX    TMP DP  RH WIND       PRES   REMARKS
CHICAGO O`HARE CLOUDY    31  24  75 SW5       30.27S WCI  26
KANKAKEE       CLOUDY    31  28  88 CALM      30.28F
MOLINE         CLOUDY    35  27  72 SE9       30.22F WCI  28
MOUNT STERLING CLOUDY    36  32  87 SE9       30.19F WCI  29
MOUNT VERNON   NOT AVBL
PITTSFIELD     CLOUDY    38  35  89 E6        30.20F WCI  33
QUINCY         CLOUDY    38  33  82 SE12      30.17F WCI  30
ROCKFORD       CLOUDY    33  28  81 S8        30.27F WCI  26
$$


CITY           SKY/WX    TMP DP  RH WIND       PRES   REMARKS
BURLINGTON     CLOUDY    35  31  85 SE9       30.20F WCI  28
CEDAR RAPIDS   LGT SNOW  34  30  85 SE9       30.17F FOG     WCI  27
DES MOINES     LGT SNOW  36  34  92 SE10      30.11F FOG     WCI  28
KIRKSVILLE     CLOUDY    39  32  76 SE12      30.15F WCI  32
OTTUMWA        CLOUDY    37  31  78 SE7       30.15F WCI  32
ST LOUIS       CLOUDY    41  31  67 E10       30.20F WCI  35
$$


CITY           SKY/WX    TMP DP  RH WIND       PRES   REMARKS
TERRE HAUTE    CLOUDY    34  29  82 CALM      30.27F
EVANSVILLE     CLOUDY    40  31  70 NE5       30.25S
INDIANAPOLIS   CLOUDY    34  27  75 E3        30.25F
LAFAYETTE      CLOUDY    33  29  85 CALM      30.27F
MADISON        CLOUDY    31  25  78 S7        30.23S WCI  24
MILWAUKEE      MOCLDY    31  22  69 S3        30.25F
$$






USA.gov is the U.S. government's official web portal to all federal, state and local government web resources and services.